Regional Weather Roundup
Issued by NWS

Home | Current Version | Previous Version | Text Only | Print | Product List | Glossary Off
Versions: 1 2 3 4 5 6 7 8 9 10 11 12 13 14 15 16 17 18 19 20 21 22 23 24 25 26 27 28 29 30 31 32 33 34 35 36 37 38 39 40 41 42 43 44 45 46 47 48 49 50

000
ASUS44 KMEG 160700
RWRTN
TENNESSEE HOURLY STATE WEATHER ROUNDUP
NATIONAL WEATHER SERVICE MEMPHIS TN
200 AM CDT WED APR 16 2014

TNZ002-004-019-021-049-052-054-088>092-160800-
WEST TENNESSEE

CITY           SKY/WX    TMP DP  RH WIND       PRES   REMARKS
MEMPHIS INTL   CLEAR     41  26  55 E3        30.24F
NWS MEMPHIS      N/A     33 N/A N/A MISG        N/A
JACKSON        CLEAR     30  27  88 CALM      30.27F
DYERSBURG      CLEAR     36  25  64 E3        30.29S
UNION CITY     CLEAR     36  25  64 SE3       30.27R
LEXINGTON      CLEAR     28  27  93 CALM      30.26S
$$

TNZ008-025-027-028-033-062-065-066-160800-
NORTH MIDDLE TENNESSEE

CITY           SKY/WX    TMP DP  RH WIND       PRES   REMARKS
NASHVILLE      CLEAR     35  23  61 N5        30.28S WCI  31
CLARKSVILLE    CLEAR     32  25  75 CALM      30.29R
CROSSVILLE     CLEAR     32  21  64 N6        30.22R WCI  26
$$

TNZ061-075-076-078-094-096-097-160800-
SOUTH MIDDLE TENNESSEE

CITY           SKY/WX    TMP DP  RH WIND       PRES   REMARKS
TULLAHOMA      CLEAR     30  21  69 N3        30.24F
WINCHESTER     CLEAR     28  27  93 CALM      30.25S
MCMINNVILLE    CLEAR     30  21  69 N5        30.24S WCI  25
COLUMBIA       CLEAR     30  28  93 CALM      30.25F
$$

TNZ017-018-042-046-047-160800-
NORTHEAST TENNESSEE

CITY           SKY/WX    TMP DP  RH WIND       PRES   REMARKS
TRI CITIES     PTCLDY    31  16  54 N6        30.22R WCI  25
ELIZABETHTON   SUNNY     28  16  59 CALM      30.21R
$$

TNZ012-013-036-069-073-074-160800-
CENTRAL EAST TENNESSEE

CITY           SKY/WX    TMP DP  RH WIND       PRES   REMARKS
KNOXVILLE      CLEAR     32  23  69 NE7       30.23R WCI  26
OAK RIDGE      CLEAR     32  25  75 CALM      30.26R
$$

TNZ083-085-099-160800-
SOUTHEAST TENNESSEE

CITY           SKY/WX    TMP DP  RH WIND       PRES   REMARKS
CHATTANOOGA    CLEAR     37  24  59 N10       30.23R WCI  30
$$

SKY/WX REPORTED AS FAIR MEANS FEW OR NO CLOUDS BELOW
12 THOUSAND FEET.




USA.gov is the U.S. government's official web portal to all federal, state and local government web resources and services.